TimeEST,TemperatureF,Dew PointF,Humidity,Sea Level PressureIn,VisibilityMPH,Wind Direction,Wind SpeedMPH,Gust SpeedMPH,PrecipitationIn,Events,Conditions,WindDirDegrees,DateUTC
12:01 AM,28.4,26.6,93,29.87,1.0,WNW,8.1,-,0.00,Snow,Light Snow,290,2013-02-04 05:01:00
12:03 AM,28.4,24.8,86,29.87,1.2,WNW,9.2,-,0.00,Snow,Light Snow,300,2013-02-04 05:03:00
12:06 AM,28.4,24.8,86,29.87,2.0,West,9.2,-,0.00,Snow,Light Snow,280,2013-02-04 05:06:00
12:09 AM,28.4,23.0,80,29.87,3.0,WNW,12.7,18.4,0.00,Snow,Light Snow,290,2013-02-04 05:09:00
12:54 AM,27.0,10.0,49,29.89,8.0,WNW,13.8,29.9,0.00,,Clear,290,2013-02-04 05:54:00
1:54 AM,26.1,9.0,49,29.91,10.0,West,10.4,19.6,N/A,,Clear,280,2013-02-04 06:54:00
2:54 AM,25.0,8.1,49,29.93,10.0,WNW,10.4,17.3,N/A,,Clear,300,2013-02-04 07:54:00
3:54 AM,24.1,9.0,53,29.95,10.0,West,9.2,17.3,N/A,,Clear,280,2013-02-04 08:54:00
5:54 AM,23.0,9.0,55,29.99,10.0,WNW,10.4,21.9,N/A,,Clear,300,2013-02-04 10:54:00
6:54 AM,21.9,9.0,58,30.00,10.0,West,5.8,-,N/A,,Clear,280,2013-02-04 11:54:00
7:54 AM,23.0,9.0,55,30.04,10.0,West,8.1,-,N/A,,Clear,260,2013-02-04 12:54:00
8:54 AM,25.0,9.0,51,30.06,10.0,West,10.4,21.9,N/A,,Clear,260,2013-02-04 13:54:00
9:54 AM,26.1,8.1,47,30.06,10.0,WNW,15.0,21.9,N/A,,Clear,290,2013-02-04 14:54:00
10:54 AM,27.0,8.1,45,30.05,10.0,WNW,10.4,21.9,N/A,,Clear,300,2013-02-04 15:54:00
11:54 AM,28.0,8.1,43,30.03,10.0,West,13.8,19.6,N/A,,Partly Cloudy,260,2013-02-04 16:54:00
12:54 PM,28.9,8.1,41,30.01,10.0,West,13.8,21.9,N/A,,Clear,260,2013-02-04 17:54:00
1:54 PM,28.9,8.1,41,29.99,10.0,WNW,12.7,19.6,N/A,,Clear,290,2013-02-04 18:54:00
2:54 PM,30.0,9.0,41,29.98,10.0,West,11.5,17.3,N/A,,Clear,280,2013-02-04 19:54:00
3:54 PM,30.0,10.0,43,29.98,10.0,West,9.2,19.6,N/A,,Clear,260,2013-02-04 20:54:00
4:54 PM,30.0,10.9,45,29.99,10.0,WSW,6.9,-,N/A,,Clear,240,2013-02-04 21:54:00
5:54 PM,28.9,10.9,47,29.99,10.0,WSW,6.9,-,N/A,,Clear,240,2013-02-04 22:54:00
6:54 PM,26.1,12.0,55,30.00,10.0,Calm,Calm,-,N/A,,Clear,0,2013-02-04 23:54:00
7:54 PM,24.1,12.9,62,30.00,10.0,Calm,Calm,-,N/A,,Clear,0,2013-02-05 00:54:00
8:54 PM,27.0,15.1,61,29.99,10.0,Calm,Calm,-,N/A,,Overcast,0,2013-02-05 01:54:00
9:54 PM,28.0,16.0,61,29.99,10.0,Calm,Calm,-,N/A,,Overcast,0,2013-02-05 02:54:00
10:54 PM,28.0,17.1,63,29.98,10.0,South,3.5,-,N/A,,Overcast,180,2013-02-05 03:54:00
11:54 PM,27.0,21.9,81,29.96,10.0,SSE,3.5,-,N/A,,Overcast,160,2013-02-05 04:54:00